Location: McCloud Nature Park
(39.8272°N, 86.6824°W)
Time: 23:14:32
(UTC-05:00)

Amateur Radio Satellites - All Passes

Search period start: 30 August 2014 22:44
Search period end: 31 August 2014 22:44
Location: McCloud Nature Park, 39.8272°N, 86.6824°W

Satellite Date Start Highest point End Downlink Frequencies (MHz)
Time Altitude Azimuth
MaSat-1 30 Aug 22:45:11 22:49:45 64° 63° (ENE) 22:53:39 437.345 MHz
Saudisat 1A 30 Aug 22:57:38 23:02:02 73° 303° (WNW) 23:06:27 436.775 MHz
KITSAT 1 30 Aug 23:47:54 23:56:00 90° 118° (ESE) 00:04:09 435.175 FM
MaSat-1 31 Aug 00:25:28 00:25:52 10° 263° (W) 00:26:16 437.345 MHz
Sapphire 31 Aug 00:26:30 00:28:35 12° 39° (NE) 00:30:39 437.095 MHz 1200 baud AX-25 AFSK
Saudisat 1A 31 Aug 00:41:11 00:42:24 11° 322° (NW) 00:43:37 436.775 MHz
PCSat 31 Aug 00:54:41 00:58:39 20° 46° (NE) 01:02:36 145.825 MHz
Oscar 19 31 Aug 01:05:40 01:08:03 13° 90° (E) 01:10:25 437.125 CW, 437.150 USB
Oscar 16 31 Aug 01:38:50 01:43:22 30° 96° (E) 01:47:52 437.025 USB, Beacon 2401.1428
ITAMSAT 1 31 Aug 01:39:07 01:40:37 11° 89° (E) 01:42:07 435.822 SSB
KITSAT 1 31 Aug 01:46:09 01:52:29 24° 321° (NW) 01:58:51 435.175 FM
Uribyol 2 31 Aug 01:47:43 01:50:44 15° 91° (E) 01:53:44 436.500 FM
JAS-1B 31 Aug 01:56:09 02:00:23 18° 88° (E) 02:04:18 435.800 - 435.900 CW/SSB
AO-27 31 Aug 02:06:03 02:10:05 23° 94° (E) 02:14:05 436.795 MHz FM
Sapphire 31 Aug 02:07:39 02:13:04 66° 59° (ENE) 02:18:27 437.095 MHz 1200 baud AX-25 AFSK
Gurwin Techsat 1B 31 Aug 02:35:21 02:39:06 19° 93° (E) 02:42:51 435.225 FM
PCSat 31 Aug 02:37:10 02:42:33 66° 245° (WSW) 02:47:54 145.825 MHz
Oscar 19 31 Aug 02:42:42 02:47:53 71° 286° (WNW) 02:53:02 437.125 CW, 437.150 USB
OPAL 31 Aug 02:51:08 02:53:20 13° 57° (ENE) 02:55:32 ?
AO-Echo 31 Aug 03:08:33 03:13:15 79° 284° (WNW) 03:17:58 ?
SO-50 31 Aug 03:09:17 03:13:19 35° 114° (ESE) 03:17:26 436.795 FM
ITAMSAT 1 31 Aug 03:15:29 03:20:41 80° 285° (WNW) 03:25:52 435.822 SSB
Oscar 16 31 Aug 03:18:05 03:22:41 33° 292° (WNW) 03:27:15 437.025 USB, Beacon 2401.1428
Uribyol 2 31 Aug 03:25:28 03:30:35 61° 287° (WNW) 03:35:42 436.500 FM
TMSAT-1 31 Aug 03:25:48 03:30:50 42° 98° (E) 03:35:49 436.925 FM
AO-27 31 Aug 03:44:52 03:49:44 42° 290° (WNW) 03:54:35 436.795 MHz FM
JAS-1B 31 Aug 03:45:10 03:51:50 61° 290° (WNW) 03:57:36 435.800 - 435.900 CW/SSB
Oscar 10/S400 31 Aug 03:51:44 05:05:11 31° 242° (WSW) 08:47:29 145.825 - 145.975 CW/USB, Beacon 145.810 USB
Sapphire 31 Aug 03:52:40 03:55:53 16° 256° (WSW) 03:59:06 437.095 MHz 1200 baud AX-25 AFSK
Uosat F 31 Aug 04:00:35 04:03:34 16° 92° (E) 04:06:33 435.120 FM
Gurwin Techsat 1B 31 Aug 04:14:13 04:19:20 50° 289° (WNW) 04:24:26 435.225 FM
OPAL 31 Aug 04:26:25 04:31:28 83° 254° (WSW) 04:36:38 ?
AO-7 31 Aug 04:40:46 04:48:39 46° 101° (E) 04:56:29 29.400 - 29.500 MHz
SO-50 31 Aug 04:50:06 04:53:55 27° 312° (NW) 04:57:49 436.795 FM
ITAMSAT 1 31 Aug 04:58:51 04:59:19 10° 302° (WNW) 04:59:46 435.822 SSB
TMSAT-1 31 Aug 05:06:18 05:10:28 24° 295° (WNW) 05:14:38 436.925 FM
UOSAT-12 31 Aug 05:06:57 05:11:18 43° 116° (ESE) 05:15:45 437.025 FM, 437.400 FM
RS-15 31 Aug 05:31:53 05:35:09 12° 96° (E) 05:38:24 29.354 - 29.394 USB, Beacon 29.352 USB
JAS-2 31 Aug 05:35:43 05:38:48 15° 93° (E) 05:41:59 435.800 - 435.900 CW/SSB, 435.910 FM
Uosat F 31 Aug 05:37:48 05:42:42 56° 288° (WNW) 05:47:34 435.120 FM
Saudisat 1A 31 Aug 05:48:01 05:49:06 11° 38° (NE) 05:50:11 436.775 MHz
KITSAT 1 31 Aug 05:48:21 05:51:41 13° 22° (NNE) 05:55:00 435.175 FM
STRAND 1 31 Aug 06:11:10 06:15:55 41° 70° (ENE) 06:20:41 ?
Hamsat 31 Aug 06:30:12 06:34:29 56° 100° (E) 06:38:43 145.90 MHz
AO-7 31 Aug 06:33:46 06:41:17 40° 299° (WNW) 06:48:46 29.400 - 29.500 MHz
UOSAT-12 31 Aug 06:47:52 06:51:38 24° 314° (NW) 06:55:28 437.025 FM, 437.400 FM
SO-67 31 Aug 07:07:44 07:10:05 17° 94° (E) 07:12:26 435.3500 MHz FM
JAS-2 31 Aug 07:19:04 07:24:15 61° 287° (WNW) 07:29:49 435.800 - 435.900 CW/SSB, 435.910 FM
Saudisat 1A 31 Aug 07:25:04 07:29:29 71° 57° (ENE) 07:33:52 436.775 MHz
RS-15 31 Aug 07:34:19 07:45:14 66° 115° (ESE) 07:55:59 29.354 - 29.394 USB, Beacon 29.352 USB
KITSAT 1 31 Aug 07:42:15 07:49:46 40° 49° (NE) 07:57:13 435.175 FM
STRAND 1 31 Aug 07:51:18 07:55:14 22° 266° (W) 07:59:12 ?
Hamsat 31 Aug 08:07:51 08:09:57 13° 296° (WNW) 08:12:02 145.90 MHz
SO-67 31 Aug 08:40:17 08:43:07 24° 289° (WNW) 08:45:56 435.3500 MHz FM
Saudisat 1A 31 Aug 09:07:09 09:08:27 11° 253° (WSW) 09:09:45 436.775 MHz
HO-68 31 Aug 09:37:15 09:44:17 57° 102° (ESE) 09:51:17 435.675 MHz FM
KITSAT 1 31 Aug 09:37:37 09:45:18 50° 249° (WSW) 09:52:56 435.175 FM
RS-15 31 Aug 09:48:11 09:58:15 39° 319° (NW) 10:08:19 29.354 - 29.394 USB, Beacon 29.352 USB
UKube-1 31 Aug 09:54:51 09:59:00 43° 99° (E) 10:03:07 145.840 MHz, 145.915 MHz
Oscar 11 31 Aug 10:00:31 10:04:28 33° 97° (E) 10:08:23 145.825 FM, Beacon 2401.500 USB
ISS 31 Aug 10:22:54 10:26:12 75° 141° (SE) 10:29:32 145.800 FM
FUNcube-1 31 Aug 10:27:45 10:31:37 27° 96° (E) 10:35:30 145.950 - 145.970 MHz USB
HO-68 31 Aug 11:25:42 11:31:33 28° 299° (WNW) 11:37:25 435.675 MHz FM
UKube-1 31 Aug 11:32:03 11:34:51 17° 295° (WNW) 11:37:39 145.840 MHz, 145.915 MHz
Oscar 11 31 Aug 11:37:07 11:40:27 22° 293° (WNW) 11:43:46 145.825 FM, Beacon 2401.500 USB
SO-50 31 Aug 11:41:17 11:45:29 30° 49° (NE) 11:49:43 436.795 FM
ISS 31 Aug 12:00:45 12:03:15 19° 338° (NNW) 12:05:46 145.800 FM
FUNcube-1 31 Aug 12:04:03 12:07:56 29° 291° (WNW) 12:11:51 145.950 - 145.970 MHz USB
RS-15 31 Aug 12:07:56 12:14:58 18° 352° (N) 12:22:04 29.354 - 29.394 USB, Beacon 29.352 USB
Oscar 19 31 Aug 12:21:30 12:25:04 19° 63° (ENE) 12:28:39 437.125 CW, 437.150 USB
MaSat-1 31 Aug 12:31:51 12:36:13 35° 106° (ESE) 12:40:51 437.345 MHz
JAS-1B 31 Aug 12:37:42 12:44:56 25° 59° (ENE) 12:51:35 435.800 - 435.900 CW/SSB
AO-Echo 31 Aug 12:44:44 12:47:20 14° 63° (ENE) 12:49:54 ?
Oscar 16 31 Aug 12:55:01 12:59:48 40° 70° (ENE) 13:04:37 437.025 USB, Beacon 2401.1428
ITAMSAT 1 31 Aug 12:55:37 12:59:00 18° 63° (ENE) 13:02:23 435.822 SSB
PANSAT 31 Aug 12:58:58 13:01:14 15° 177° (S) 13:03:30 not established
Uribyol 2 31 Aug 13:04:43 13:08:40 23° 65° (ENE) 13:12:38 436.500 FM
SO-50 31 Aug 13:21:43 13:26:05 35° 246° (WSW) 13:30:28 436.795 FM
AO-27 31 Aug 13:23:25 13:27:59 32° 68° (ENE) 13:32:33 436.795 MHz FM
UOSAT-12 31 Aug 13:37:17 13:41:34 33° 50° (NE) 13:45:46 437.025 FM, 437.400 FM
ISS 31 Aug 13:40:03 13:41:01 11° 359° (N) 13:41:59 145.800 FM
AO-7 31 Aug 13:52:24 13:55:42 13° 46° (NE) 13:58:59 29.400 - 29.500 MHz
Gurwin Techsat 1B 31 Aug 13:55:34 14:00:04 29° 67° (ENE) 14:04:35 435.225 FM
Oscar 19 31 Aug 13:58:57 14:03:58 53° 260° (W) 14:09:03 437.125 CW, 437.150 USB
MaSat-1 31 Aug 14:08:52 14:13:15 30° 304° (NW) 14:17:49 437.345 MHz
AO-Echo 31 Aug 14:20:34 14:25:35 67° 258° (WSW) 14:30:29 ?
RS-15 31 Aug 14:24:03 14:32:51 26° 28° (NNE) 14:41:48 29.354 - 29.394 USB, Beacon 29.352 USB
JAS-1B 31 Aug 14:24:44 14:34:37 84° 256° (WSW) 14:43:30 435.800 - 435.900 CW/SSB
Oscar 10/S400 31 Aug 14:26:15 14:34:50 12° 150° (SSE) 14:42:04 145.825 - 145.975 CW/USB, Beacon 145.810 USB
ITAMSAT 1 31 Aug 14:32:57 14:38:01 57° 259° (W) 14:43:07 435.822 SSB
Oscar 16 31 Aug 14:35:11 14:39:15 24° 266° (W) 14:43:23 437.025 USB, Beacon 2401.1428
PANSAT 31 Aug 14:39:02 14:40:42 12° 190° (S) 14:42:22 not established
Uribyol 2 31 Aug 14:42:58 14:47:51 43° 261° (W) 14:52:46 436.500 FM
TMSAT-1 31 Aug 14:45:46 14:50:58 61° 73° (ENE) 14:56:11 436.925 FM
AO-27 31 Aug 15:02:58 15:07:27 29° 264° (W) 15:11:57 436.795 MHz FM
Uosat F 31 Aug 15:13:03 15:16:48 22° 65° (ENE) 15:20:33 435.120 FM
ISS 31 Aug 15:16:31 15:18:50 17° 19° (NNE) 15:21:09 145.800 FM
UOSAT-12 31 Aug 15:17:33 15:21:38 30° 247° (WSW) 15:25:39 437.025 FM, 437.400 FM
Gurwin Techsat 1B 31 Aug 15:35:06 15:39:54 34° 263° (W) 15:44:43 435.225 FM
PCSat 31 Aug 15:36:54 15:40:24 18° 105° (ESE) 15:43:56 145.825 MHz
AO-7 31 Aug 15:38:38 15:46:44 59° 66° (ENE) 15:54:51 29.400 - 29.500 MHz
JAS-1B 31 Aug 16:19:42 16:25:52 19° 271° (W) 16:31:46 435.800 - 435.900 CW/SSB
TMSAT-1 31 Aug 16:28:10 16:31:17 16° 269° (W) 16:34:25 436.925 FM
RS-15 31 Aug 16:36:21 16:47:28 74° 56° (NE) 16:59:01 29.354 - 29.394 USB, Beacon 29.352 USB
OPAL 31 Aug 16:37:33 16:41:59 28° 98° (E) 16:46:23 ?
Sapphire 31 Aug 16:48:29 16:53:51 72° 116° (ESE) 16:59:16 437.095 MHz 1200 baud AX-25 AFSK
Uosat F 31 Aug 16:50:31 16:55:17 43° 261° (W) 17:00:03 435.120 FM
ISS 31 Aug 16:52:38 16:55:59 83° 38° (NE) 16:59:19 145.800 FM
PCSat 31 Aug 17:17:57 17:23:17 60° 301° (WNW) 17:28:40 145.825 MHz
Hamsat 31 Aug 17:22:47 17:26:44 36° 71° (ENE) 17:30:43 145.90 MHz
JAS-2 31 Aug 17:30:19 17:36:13 50° 72° (ENE) 17:41:31 435.800 - 435.900 CW/SSB, 435.910 FM
AO-7 31 Aug 17:32:47 17:39:52 30° 264° (W) 17:46:59 29.400 - 29.500 MHz
OPAL 31 Aug 18:16:08 18:20:52 36° 294° (WNW) 18:25:35 ?
STRAND 1 31 Aug 18:23:58 18:26:41 14° 91° (E) 18:29:23 ?
Sapphire 31 Aug 18:34:06 18:37:51 19° 315° (NW) 18:41:37 437.095 MHz 1200 baud AX-25 AFSK
RS-15 31 Aug 18:49:49 18:58:51 30° 256° (WSW) 19:08:14 29.354 - 29.394 USB, Beacon 29.352 USB
Hamsat 31 Aug 18:59:44 19:02:47 19° 267° (W) 19:05:53 145.90 MHz
PCSat 31 Aug 19:06:17 19:07:51 11° 322° (NW) 19:09:26 145.825 MHz
SO-67 31 Aug 19:11:43 19:15:11 87° 258° (WSW) 19:18:40 435.3500 MHz FM
JAS-2 31 Aug 19:16:52 19:21:28 22° 265° (W) 19:25:45 435.800 - 435.900 CW/SSB, 435.910 FM
STRAND 1 31 Aug 20:01:14 20:06:17 63° 287° (WNW) 20:11:19 ?
HO-68 31 Aug 20:05:09 20:11:38 40° 64° (ENE) 20:18:08 435.675 MHz FM
UKube-1 31 Aug 20:49:45 20:53:40 34° 70° (ENE) 20:57:37 145.840 MHz, 145.915 MHz
Oscar 11 31 Aug 20:55:13 20:58:42 24° 68° (ENE) 21:02:13 145.825 FM, Beacon 2401.500 USB
FUNcube-1 31 Aug 21:24:27 21:27:24 19° 66° (ENE) 21:30:24 145.950 - 145.970 MHz USB
Saudisat 1A 31 Aug 21:31:46 21:35:07 22° 112° (ESE) 21:38:29 436.775 MHz
HO-68 31 Aug 21:52:43 21:59:16 39° 262° (W) 22:05:53 435.675 MHz FM
KITSAT 1 31 Aug 22:10:54 22:17:23 27° 105° (ESE) 22:23:52 435.175 FM
UKube-1 31 Aug 22:26:46 22:29:57 20° 266° (W) 22:33:09 145.840 MHz, 145.915 MHz
MaSat-1 31 Aug 22:26:49 22:31:19 58° 62° (ENE) 22:35:10 437.345 MHz
Oscar 11 31 Aug 22:31:01 22:34:46 28° 264° (W) 22:38:33 145.825 FM, Beacon 2401.500 USB
